SXM-7

Last updated on Thu Jul 03 2025 00:02:48 GMT+0000 (Coordinated Universal Time)

1 47240U 20096A 25183.54967985 -.00000197 00000+0 00000+0 0 9992 2 47240 0.0252 102.3150 0004094 22.4657 268.7384 1.00271294 3943
UTC large
Height (km)
Speed (km/s)
/
Latitude / Longitude
Inclination (degrees)
Orbital Period (minutes)
Azimuth
Elevation
Range (km)
Doppler Factor

Next 0 passes for location: London (51.5072 / 0.1276)

Sorry there are no passes over London.